| time (UTC) | temp F | wind direction | speed MPH | gust MPH | rain 1hr in | rain 24hr in | rain mn in | humidity % | barometer mb |
| 20260507023053 | 56 | 324 | 3.0 | 10.0 | 0.00 | 0.00 | 0.00 | 87 | 1019.7 |
| 20260507021555 | 56 | 301 | 3.0 | 10.0 | 0.00 | 0.00 | 0.00 | 86 | 1019.8 |
| 20260507020103 | 57 | 340 | 4.0 | 9.0 | 0.00 | 0.00 | 0.00 | 86 | 1019.8 |
| 20260507014558 | 57 | 324 | 5.0 | 13.0 | 0.00 | 0.00 | 0.00 | 86 | 1019.9 |
| 20260507013053 | 57 | 321 | 7.0 | 11.0 | 0.00 | 0.00 | 0.00 | 85 | 1020.0 |
| 20260507011553 | 58 | 305 | 4.0 | 13.0 | 0.00 | 0.00 | 0.00 | 85 | 1019.9 |
| 20260507010109 | 58 | 292 | 7.0 | 14.0 | 0.00 | 0.00 | 0.00 | 84 | 1019.9 |
| 20260507004556 | 59 | 282 | 7.0 | 13.0 | 0.00 | 0.00 | 0.00 | 84 | 1019.8 |
| 20260507003055 | 59 | 282 | 5.0 | 14.0 | 0.00 | 0.00 | 0.00 | 84 | 1019.6 |
| 20260507001608 | 59 | 307 | 6.0 | 15.0 | 0.00 | 0.00 | 0.00 | 83 | 1019.6 |
| 20260507000052 | 60 | 302 | 3.0 | 11.0 | 0.00 | 0.00 | 0.00 | 83 | 1019.6 |
| 20260506234603 | 60 | 300 | 4.0 | 12.0 | 0.00 | 0.00 | 0.00 | 83 | 1019.6 |
| 20260506233059 | 60 | 303 | 5.0 | 15.0 | 0.00 | 0.00 | 0.00 | 83 | 1019.6 |
| 20260506231609 | 60 | 308 | 5.0 | 14.0 | 0.00 | 0.00 | 0.00 | 82 | 1019.6 |
| 20260506230111 | 60 | 293 | 7.0 | 13.0 | 0.00 | 0.00 | 0.00 | 82 | 1019.8 |
| 20260506224603 | 60 | 319 | 6.0 | 14.0 | 0.00 | 0.00 | 0.00 | 82 | 1019.8 |
| 20260506223100 | 61 | 299 | 5.0 | 13.0 | 0.00 | 0.00 | 0.00 | 82 | 1019.8 |
| 20260506221613 | 61 | 320 | 5.0 | 13.0 | 0.00 | 0.00 | 0.00 | 81 | 1020.1 |
| 20260506220115 | 61 | 295 | 6.0 | 14.0 | 0.00 | 0.00 | 0.00 | 81 | 1020.2 |
| 20260506214558 | 61 | 306 | 3.0 | 12.0 | 0.00 | 0.00 | 0.00 | 81 | 1020.2 |
| 20260506213109 | 61 | 293 | 4.0 | 14.0 | 0.00 | 0.00 | 0.00 | 81 | 1020.2 |
| 20260506211558 | 61 | 288 | 6.0 | 15.0 | 0.00 | 0.00 | 0.00 | 80 | 1020.3 |
| 20260506210105 | 62 | 297 | 5.0 | 12.0 | 0.00 | 0.00 | 0.00 | 80 | 1020.3 |
| 20260506204606 | 62 | 287 | 4.0 | 12.0 | 0.00 | 0.00 | 0.00 | 81 | 1020.4 |
| 20260506203056 | 62 | 287 | 5.0 | 13.0 | 0.00 | 0.00 | 0.00 | 80 | 1020.5 |
| 20260506201558 | 62 | 288 | 5.0 | 13.0 | 0.00 | 0.00 | 0.00 | 79 | 1020.6 |
| 20260506200055 | 62 | 296 | 4.0 | 14.0 | 0.00 | 0.00 | 0.00 | 79 | 1020.7 |
| 20260506194553 | 63 | 284 | 6.0 | 12.0 | 0.00 | 0.00 | 0.00 | 78 | 1020.7 |
| 20260506193055 | 63 | 309 | 5.0 | 13.0 | 0.00 | 0.00 | 0.00 | 77 | 1020.7 |
| 20260506191556 | 63 | 288 | 6.0 | 14.0 | 0.00 | 0.00 | 0.00 | 78 | 1020.7 |
| 20260506190052 | 62 | 302 | 7.0 | 15.0 | 0.00 | 0.00 | 0.00 | 77 | 1020.8 |
| 20260506184620 | 64 | 309 | 3.0 | 12.0 | 0.00 | 0.00 | 0.00 | 77 | 1020.8 |
| 20260506183057 | 63 | 282 | 5.0 | 12.0 | 0.00 | 0.00 | 0.00 | 76 | 1020.8 |
| 20260506181559 | 64 | 306 | 3.0 | 11.0 | 0.00 | 0.00 | 0.00 | 76 | 1021.0 |
| 20260506174554 | 63 | 292 | 4.0 | 11.0 | 0.00 | 0.00 | 0.00 | 80 | 1021.1 |
| 20260506173053 | 61 | 315 | 6.0 | 10.0 | 0.00 | 0.00 | 0.00 | 79 | 1021.1 |
| 20260506171601 | 62 | 281 | 2.0 | 10.0 | 0.00 | 0.00 | 0.00 | 79 | 1021.1 |
| 20260506170057 | 61 | 309 | 5.0 | 9.0 | 0.00 | 0.00 | 0.00 | 81 | 1021.3 |
| 20260506164553 | 61 | 313 | 1.0 | 5.0 | 0.00 | 0.00 | 0.00 | 80 | 1021.2 |
| 20260506163101 | 60 | 350 | 1.0 | 5.0 | 0.00 | 0.00 | 0.00 | 84 | 1021.2 |
| 20260506161553 | 58 | 322 | 1.0 | 3.0 | 0.00 | 0.00 | 0.00 | 86 | 1021.3 |
| 20260506160108 | 57 | 0 | 1.0 | 4.0 | 0.00 | 0.00 | 0.00 | 88 | 1021.2 |
| 20260506154553 | 56 | 0 | 0.0 | 3.0 | 0.00 | 0.01 | 0.00 | 89 | 1021.2 |
| 20260506153053 | 55 | 0 | 0.0 | 2.0 | 0.00 | 0.01 | 0.00 | 90 | 1021.2 |
| 20260506151557 | 55 | 0 | 0.0 | 0.0 | 0.00 | 0.01 | 0.00 | 91 | 1021.1 |
| 20260506150055 | 55 | 0 | 0.0 | 0.0 | 0.00 | 0.01 | 0.00 | 91 | 1021.2 |
| 20260506144603 | 54 | 0 | 0.0 | 0.0 | 0.00 | 0.01 | 0.00 | 90 | 1021.1 |
| 20260506143054 | 53 | 0 | 0.0 | 0.0 | 0.00 | 0.01 | 0.00 | 90 | 1021.1 |
| 20260506141557 | 53 | 0 | 0.0 | 0.0 | 0.00 | 0.01 | 0.00 | 90 | 1020.9 |
| 20260506140056 | 53 | 0 | 0.0 | 0.0 | 0.00 | 0.01 | 0.00 | 90 | 1020.8 |
| 20260506134553 | 53 | 0 | 0.0 | 0.0 | 0.00 | 0.01 | 0.00 | 90 | 1020.6 |
| 20260506133057 | 53 | 0 | 0.0 | 0.0 | 0.00 | 0.01 | 0.00 | 90 | 1020.6 |
| 20260506131612 | 52 | 0 | 0.0 | 0.0 | 0.00 | 0.01 | 0.00 | 90 | 1020.4 |
| 20260506130056 | 53 | 0 | 0.0 | 0.0 | 0.00 | 0.01 | 0.00 | 89 | 1020.2 |
| 20260506124553 | 53 | 0 | 0.0 | 0.0 | 0.00 | 0.01 | 0.00 | 89 | 1020.2 |
| 20260506123055 | 53 | 0 | 0.0 | 0.0 | 0.00 | 0.01 | 0.00 | 89 | 1020.2 |
| 20260506121557 | 53 | 0 | 0.0 | 0.0 | 0.00 | 0.01 | 0.00 | 89 | 1020.1 |
| 20260506120104 | 53 | 0 | 0.0 | 0.0 | 0.00 | 0.01 | 0.00 | 88 | 1020.0 |
| 20260506114555 | 54 | 0 | 0.0 | 0.0 | 0.00 | 0.01 | 0.00 | 88 | 1019.8 |
| 20260506113055 | 54 | 0 | 0.0 | 0.0 | 0.00 | 0.01 | 0.00 | 89 | 1019.7 |
| 20260506111556 | 55 | 0 | 0.0 | 0.0 | 0.00 | 0.01 | 0.00 | 88 | 1019.8 |
| 20260506110058 | 55 | 0 | 0.0 | 1.0 | 0.00 | 0.01 | 0.00 | 88 | 1019.6 |
| 20260506104605 | 55 | 0 | 0.0 | 1.0 | 0.00 | 0.01 | 0.00 | 88 | 1019.5 |
| 20260506103059 | 55 | 0 | 0.0 | 3.0 | 0.00 | 0.01 | 0.00 | 88 | 1019.5 |
| 20260506101600 | 55 | 0 | 0.0 | 1.0 | 0.00 | 0.01 | 0.00 | 89 | 1019.5 |
| 20260506100114 | 55 | 0 | 0.0 | 1.0 | 0.00 | 0.01 | 0.00 | 89 | 1019.5 |
| 20260506094555 | 56 | 324 | 0.0 | 3.0 | 0.00 | 0.01 | 0.00 | 89 | 1019.7 |
| 20260506093103 | 56 | 321 | 0.0 | 3.0 | 0.00 | 0.01 | 0.00 | 89 | 1019.6 |
| 20260506091558 | 56 | 0 | 0.0 | 3.0 | 0.00 | 0.01 | 0.00 | 89 | 1019.5 |
| 20260506090100 | 56 | 0 | 0.0 | 3.0 | 0.00 | 0.01 | 0.00 | 89 | 1019.6 |
| 20260506084555 | 56 | 325 | 0.0 | 3.0 | 0.00 | 0.01 | 0.00 | 89 | 1019.5 |
| 20260506083052 | 56 | 0 | 1.0 | 3.0 | 0.00 | 0.01 | 0.00 | 89 | 1019.7 |
| 20260506081558 | 57 | 0 | 0.0 | 3.0 | 0.00 | 0.01 | 0.00 | 89 | 1019.7 |
| 20260506073054 | 57 | 0 | 0.0 | 1.0 | 0.00 | 0.01 | 0.00 | 89 | 1019.5 |
| 20260506071559 | 57 | 0 | 0.0 | 0.0 | 0.00 | 0.01 | 0.00 | 89 | 1019.4 |
| 20260506061556 | 57 | 0 | 0.0 | 0.0 | 0.00 | 0.01 | 0.01 | 87 | 1018.8 |
| 20260506044552 | 57 | 0 | 0.0 | 0.0 | 0.00 | 0.01 | 0.01 | 86 | 1018.4 |
| 20260506043052 | 57 | 0 | 0.0 | 1.0 | 0.00 | 0.01 | 0.01 | 86 | 1018.2 |
| 20260506041555 | 57 | 0 | 0.0 | 0.0 | 0.00 | 0.01 | 0.01 | 85 | 1018.1 |
| 20260506040108 | 57 | 0 | 0.0 | 0.0 | 0.00 | 0.01 | 0.01 | 85 | 1017.9 |
| 20260506034553 | 57 | 0 | 0.0 | 1.0 | 0.00 | 0.01 | 0.01 | 85 | 1017.8 |
| 20260506033055 | 57 | 0 | 0.0 | 0.0 | 0.00 | 0.01 | 0.01 | 84 | 1017.7 |
| 20260506031553 | 57 | 0 | 0.0 | 0.0 | 0.00 | 0.01 | 0.01 | 84 | 1017.6 |
| 20260506024558 | 58 | 0 | 0.0 | 3.0 | 0.00 | 0.01 | 0.01 | 84 | 1017.2 |